FW2284 Weather Reports


Display with metric or nautical units.
time (UTC)temp
F
wind
direction
speed
MPH
gust
MPH
rain 1hr
in
rain 24hr
in
rain mn
in
humidity
%
barometer
mb
20260905164531 97 252 4.0 7.0 0.00 0.00 0.00 45 1013.2
20260905163030 97 293 5.0 10.0 0.00 0.00 0.00 46 1013.3
20260905161529 97 266 2.0 5.0 0.00 0.00 0.00 45 1013.4
20260905160029 95 223 0.0 4.0 0.00 0.00 0.00 49 1013.4
20260905154524 94 307 0.0 5.0 0.00 0.00 0.00 51 1013.3
20260905153022 93 323 3.0 5.0 0.00 0.00 0.00 53 1013.4
20260905151518 92 320 1.0 5.0 0.00 0.00 0.00 54 1013.4
20260905150015 91 268 2.0 8.0 0.00 0.00 0.00 56 1013.3
20260905144517 90 254 2.0 8.0 0.00 0.00 0.00 56 1013.3
20260905143011 90 266 4.0 7.0 0.00 0.00 0.00 56 1013.4
20260905141509 89 300 3.0 8.0 0.00 0.00 0.00 59 1013.3
20260905140005 88 300 3.0 7.0 0.00 0.00 0.00 58 1013.3
20260905134500 87 300 2.0 5.0 0.00 0.00 0.00 61 1013.2
20260905133056 86 261 2.0 5.0 0.00 0.00 0.00 63 1013.0
20260905131552 84 265 2.0 7.0 0.00 0.00 0.00 66 1013.0
20260905130050 83 274 3.0 7.0 0.00 0.00 0.00 68 1013.1
20260905124546 82 266 2.0 6.0 0.00 0.00 0.00 70 1012.9
20260905123043 81 250 0.0 4.0 0.00 0.00 0.00 72 1012.8
20260905121541 80 268 2.0 5.0 0.00 0.00 0.00 75 1012.6
20260905120041 78 243 2.0 8.0 0.00 0.00 0.00 78 1012.5
20260905114541 78 210 2.0 7.0 0.00 0.00 0.00 79 1012.4
20260905113031 78 232 2.0 4.0 0.00 0.00 0.00 80 1012.2
20260905111531 78 272 2.0 5.0 0.00 0.00 0.00 79 1012.1
20260905110030 78 198 1.0 4.0 0.00 0.00 0.00 79 1012.1
20260905104529 78 198 1.0 4.0 0.00 0.00 0.00 80 1012.1
20260905103034 78 208 1.0 3.0 0.00 0.00 0.00 80 1012.3
20260905101529 78 192 0.0 4.0 0.00 0.00 0.00 80 1012.4
20260905100024 78 217 1.0 3.0 0.00 0.00 0.00 79 1012.1
20260905094523 79 195 1.0 3.0 0.00 0.00 0.00 79 1012.0
20260905093022 79 216 1.0 3.0 0.00 0.00 0.00 79 1012.1
20260905091521 79 167 1.0 3.0 0.00 0.00 0.00 79 1012.1
20260905090028 79 205 1.0 3.0 0.00 0.00 0.00 78 1012.2
20260905084518 79 167 1.0 3.0 0.00 0.00 0.00 79 1012.1
20260905083017 80 194 0.0 2.0 0.00 0.00 0.00 78 1012.3
20260905081516 80 162 0.0 3.0 0.00 0.00 0.00 77 1012.4
20260905080018 80 142 0.0 3.0 0.00 0.00 0.00 77 1012.6
20260905074515 80 210 0.0 3.0 0.00 0.00 0.00 77 1012.6
20260905073014 80 221 0.0 1.0 0.00 0.00 0.00 77 1012.6
20260905071513 80 216 0.0 1.0 0.00 0.00 0.00 78 1012.6
20260905070012 79 207 0.0 3.0 0.00 0.00 0.00 80 1012.5
20260905064511 80 208 0.0 0.0 0.00 0.00 0.00 79 1012.7
20260905063010 80 208 0.0 0.0 0.00 0.00 0.00 77 1012.8
20260905061508 80 191 0.0 0.0 0.00 0.00 0.00 79 1012.8
20260905060007 80 210 0.0 2.0 0.00 0.00 0.00 78 1012.9
20260905054506 81 215 0.0 2.0 0.00 0.00 0.00 75 1012.9
20260905053008 80 191 0.0 1.0 0.00 0.00 0.00 76 1012.9
20260905051502 81 200 0.0 1.0 0.00 0.00 0.00 76 1012.9
20260905044602 81 210 0.0 1.0 0.00 0.00 0.00 74 1012.7
20260905043101 81 219 0.0 2.0 0.00 0.00 0.00 75 1012.7
20260905041559 80 223 0.0 0.0 0.00 0.00 0.00 78 1012.9
20260905040100 79 186 0.0 0.0 0.00 0.00 0.00 82 1012.8
20260905034602 78 181 0.0 0.0 0.00 0.00 0.00 82 1012.8
20260905033057 79 181 0.0 0.0 0.00 0.00 0.00 81 1012.8
20260905031556 79 181 0.0 0.0 0.00 0.00 0.00 80 1012.8
20260905030105 79 181 0.0 0.0 0.00 0.00 0.00 79 1012.7
20260905024556 80 181 0.0 0.0 0.00 0.00 0.00 79 1012.6
20260905023056 81 205 0.0 0.0 0.00 0.00 0.00 76 1012.6
20260905021555 81 205 0.0 0.0 0.00 0.00 0.00 75 1012.4
20260905020107 82 205 0.0 0.0 0.00 0.00 0.00 72 1012.2
20260905014555 83 205 0.0 0.0 0.00 0.00 0.00 70 1012.1
20260905013103 84 205 0.0 0.0 0.00 0.00 0.00 67 1011.8
20260905011627 86 205 0.0 0.0 0.00 0.00 0.00 63 1011.7
20260905010052 87 205 0.0 0.0 0.00 0.00 0.00 62 1011.7
20260905004552 87 205 0.0 0.0 0.00 0.00 0.00 60 1011.7
20260905003052 90 205 0.0 0.0 0.00 0.00 0.00 57 1011.7
20260905001557 93 204 0.0 0.0 0.00 0.00 0.00 52 1011.7
20260905000049 96 245 0.0 0.0 0.00 0.00 0.00 47 1011.6
20260904234548 97 248 0.0 2.0 0.00 0.00 0.00 46 1011.4
20260904233047 97 240 0.0 3.0 0.00 0.00 0.00 46 1011.4
20260904231546 98 198 0.0 4.0 0.00 0.00 0.00 47 1011.5
20260904230046 97 235 1.0 5.0 0.00 0.00 0.00 45 1011.5
20260904224547 97 221 3.0 5.0 0.00 0.00 0.00 44 1011.6
20260904223045 98 136 4.0 6.0 0.00 0.00 0.00 44 1011.7
20260904221542 98 196 2.0 8.0 0.00 0.00 0.00 45 1011.6
20260904220040 98 256 2.0 7.0 0.00 0.00 0.00 43 1011.7
20260904214539 99 205 2.0 6.0 0.00 0.00 0.00 43 1011.9
20260904213038 99 184 2.0 6.0 0.00 0.00 0.00 42 1012.1
20260904211535 98 146 2.0 8.0 0.00 0.00 0.00 41 1012.2
20260904210035 98 150 3.0 7.0 0.00 0.00 0.00 42 1012.5
20260904204534 98 238 2.0 8.0 0.00 0.00 0.00 43 1012.8
20260904203035 98 212 3.0 9.0 0.00 0.00 0.00 43 1012.8
20260904201532 98 239 5.0 8.0 0.00 0.00 0.00 43 1013.0
20260904200032 98 159 6.0 11.0 0.00 0.00 0.00 43 1013.1
20260904194534 98 221 4.0 9.0 0.00 0.00 0.00 45 1013.2
20260904193032 99 195 4.0 9.0 0.00 0.00 0.00 41 1013.4
20260904191529 98 196 3.0 7.0 0.00 0.00 0.00 43 1013.5
20260904190025 97 95 3.0 5.0 0.00 0.00 0.00 45 1013.5
20260904184531 97 297 3.0 6.0 0.00 0.00 0.00 44 1013.7
20260904183024 97 53 2.0 5.0 0.00 0.00 0.00 45 1013.7
20260904181541 96 324 0.0 4.0 0.00 0.00 0.00 46 1014.1
20260904180022 96 198 1.0 7.0 0.00 0.00 0.00 48 1014.1
20260904174521 96 293 4.0 8.0 0.00 0.00 0.00 46 1014.2
20260904173023 96 318 5.0 8.0 0.00 0.00 0.00 46 1014.4
20260904171517 95 278 4.0 8.0 0.00 0.00 0.00 48 1014.5
20260904170016 95 321 2.0 9.0 0.00 0.00 0.00 46 1014.7